FW3095 Weather Reports


Display with metric or nautical units.
time (UTC)temp
F
wind
direction
speed
MPH
gust
MPH
rain 1hr
in
rain 24hr
in
rain mn
in
humidity
%
barometer
mb
20260510211501 65 255 2.0 10.0 0.00 0.00 0.00 37 989.7
20260510204606 65 269 4.0 11.0 0.00 0.00 0.00 36 989.4
20260510203059 65 304 4.0 7.0 0.00 0.00 0.00 36 989.3
20260510201559 65 312 4.0 9.0 0.00 0.00 0.00 36 989.3
20260510200111 65 238 5.0 13.0 0.00 0.00 0.00 34 989.2
20260510194608 65 51 3.0 9.0 0.00 0.00 0.00 43 989.4
20260510193113 65 321 6.0 10.0 0.00 0.00 0.00 38 989.4
20260510191555 64 266 4.0 9.0 0.00 0.00 0.00 40 989.5
20260510190055 64 263 3.0 10.0 0.00 0.00 0.00 41 989.7
20260510184559 64 324 6.0 11.0 0.00 0.00 0.00 42 989.8
20260510183052 64 259 5.0 12.0 0.00 0.00 0.00 39 989.8
20260510181550 64 297 3.0 8.0 0.00 0.00 0.00 41 989.7
20260510180048 64 294 5.0 8.0 0.00 0.00 0.00 42 989.6
20260510174554 63 316 2.0 7.0 0.00 0.00 0.00 43 989.8
20260510173045 63 315 4.0 8.0 0.00 0.00 0.00 49 989.8
20260510171544 62 289 3.0 8.0 0.00 0.00 0.00 42 989.9
20260510170043 62 145 0.0 7.0 0.00 0.00 0.00 47 989.9
20260510164550 62 325 2.0 8.0 0.00 0.00 0.00 53 990.1
20260510163039 62 115 1.0 7.0 0.00 0.00 0.00 48 989.5
20260510161536 61 41 1.0 7.0 0.00 0.00 0.00 51 989.4
20260510160036 60 21 5.0 8.0 0.00 0.00 0.00 53 989.4
20260510154530 59 56 6.0 9.0 0.00 0.00 0.00 58 989.5
20260510153032 59 39 5.0 10.0 0.00 0.00 0.00 59 989.6
20260510151527 57 41 4.0 12.0 0.00 0.00 0.00 62 989.4
20260510150027 58 56 8.0 11.0 0.00 0.00 0.00 60 989.4
20260510144525 58 20 5.0 9.0 0.00 0.00 0.00 63 989.3
20260510143021 57 4 2.0 12.0 0.00 0.00 0.00 64 989.1
20260510141520 57 6 1.0 7.0 0.00 0.00 0.00 69 988.9
20260510140016 56 327 2.0 11.0 0.00 0.00 0.00 67 988.8
20260510134514 56 34 2.0 8.0 0.00 0.00 0.00 66 988.6
20260510133011 55 33 3.0 10.0 0.00 0.00 0.00 69 988.4
20260510131509 55 19 2.0 5.0 0.00 0.00 0.00 70 988.2
20260510130006 54 51 5.0 9.0 0.00 0.00 0.00 70 987.9
20260510124504 53 42 9.0 12.0 0.00 0.00 0.00 69 987.7
20260510123001 54 34 3.0 9.0 0.00 0.00 0.00 72 987.5
20260510121609 54 51 2.0 6.0 0.00 0.00 0.00 71 987.3
20260510120058 53 32 3.0 10.0 0.00 0.00 0.00 72 987.1
20260510114612 53 344 0.0 3.0 0.00 0.00 0.00 75 986.8
20260510113059 52 336 1.0 3.0 0.00 0.00 0.00 76 986.8
20260510111553 51 336 1.0 5.0 0.00 0.00 0.00 77 986.4
20260510110050 51 345 1.0 4.0 0.00 0.00 0.00 75 986.2
20260510104555 52 331 1.0 4.0 0.00 0.00 0.00 75 985.9
20260510103046 52 316 1.0 2.0 0.00 0.00 0.00 74 985.5
20260510101542 53 314 0.0 2.0 0.00 0.00 0.00 73 985.2
20260510100056 53 315 1.0 2.0 0.00 0.00 0.00 71 985.1
20260510094547 54 315 1.0 3.0 0.00 0.00 0.00 71 985.0
20260510093037 54 319 0.0 3.0 0.00 0.00 0.00 71 984.9
20260510091535 54 339 0.0 3.0 0.00 0.00 0.00 70 984.6
20260510090034 54 342 2.0 4.0 0.00 0.00 0.00 69 984.5
20260510084533 54 341 1.0 3.0 0.00 0.00 0.00 70 984.3
20260510083033 54 342 0.0 2.0 0.00 0.00 0.00 71 984.2
20260510081533 54 35 1.0 2.0 0.00 0.00 0.00 70 984.1
20260510080030 54 35 0.0 1.0 0.00 0.00 0.00 70 984.3
20260510074535 55 35 0.0 1.0 0.00 0.01 0.00 68 984.2
20260510073026 55 36 0.0 2.0 0.00 0.01 0.00 69 983.7
20260510071527 55 36 0.0 3.0 0.00 0.01 0.00 68 983.4
20260510070026 55 7 0.0 3.0 0.00 0.01 0.00 68 983.4
20260510064522 55 338 1.0 2.0 0.00 0.01 0.00 68 983.6
20260510063019 56 339 0.0 1.0 0.00 0.01 0.00 66 983.6
20260510061518 56 339 0.0 2.0 0.00 0.01 0.00 66 983.8
20260510060016 56 350 1.0 2.0 0.00 0.01 0.00 65 983.4
20260510054514 57 35 0.0 2.0 0.00 0.01 0.00 66 983.3
20260510053012 57 35 0.0 2.0 0.00 0.01 0.00 65 983.0
20260510051509 58 41 0.0 5.0 0.00 0.01 0.00 63 982.8
20260510050009 58 36 2.0 6.0 0.00 0.01 0.00 62 982.6
20260510044508 58 336 0.0 2.0 0.00 0.01 0.00 64 982.3
20260510043007 58 336 0.0 2.0 0.00 0.01 0.00 64 982.2
20260510041501 59 336 1.0 3.0 0.00 0.01 0.00 63 982.3
20260510040058 59 320 0.0 2.0 0.00 0.01 0.00 65 982.0
20260510034558 59 320 1.0 2.0 0.00 0.01 0.01 62 981.9
20260510033120 61 337 2.0 5.0 0.00 0.01 0.01 58 981.7
20260510031610 62 331 2.0 6.0 0.00 0.01 0.01 57 981.2
20260510030050 63 328 3.0 7.0 0.00 0.01 0.01 59 980.9
20260510024549 62 272 4.0 8.0 0.00 0.01 0.01 66 980.5
20260510023047 62 240 1.0 3.0 0.00 0.01 0.01 70 980.5
20260510021546 63 238 2.0 4.0 0.00 0.01 0.01 67 980.1
20260510020045 63 243 2.0 3.0 0.00 0.01 0.01 67 979.8
20260510014542 64 248 3.0 5.0 0.00 0.01 0.01 65 979.5
20260510013042 65 262 5.0 7.0 0.00 0.01 0.01 60 979.2
20260510011541 65 262 4.0 6.0 0.00 0.01 0.01 62 979.0
20260510010047 66 265 4.0 7.0 0.00 0.01 0.01 59 978.9
20260510004539 68 262 4.0 9.0 0.00 0.01 0.01 52 978.7
20260510003052 69 311 5.0 15.0 0.00 0.01 0.01 51 978.6
20260510001542 69 266 9.0 12.0 0.00 0.01 0.01 58 978.2
20260510000043 69 259 5.0 12.0 0.00 0.01 0.01 59 978.0
20260509234541 70 245 7.0 14.0 0.00 0.01 0.01 57 977.7
20260509233033 71 238 7.0 12.0 0.00 0.01 0.01 67 977.6
20260509231534 71 253 7.0 11.0 0.00 0.01 0.01 70 977.5
20260509230032 72 223 8.0 14.0 0.00 0.01 0.01 66 977.6
20260509224531 70 206 7.0 15.0 0.00 0.01 0.01 68 977.7
20260509223031 72 235 9.0 16.0 0.00 0.01 0.01 65 977.5
20260509221533 71 233 10.0 18.0 0.00 0.01 0.01 65 977.4
20260509220029 71 229 11.0 18.0 0.00 0.01 0.01 65 977.3
20260509214536 71 233 12.0 18.0 0.00 0.01 0.01 65 977.4
20260509213034 73 233 11.0 20.0 0.00 0.01 0.01 64 977.3